QPF
0.00 0.00 0.00 0.00 0.00 0.00 0.00 0.00 0.00 0.00 0.00 0.00 0.00 0.00 0.00 0.00 0.00 0.00 0.01 0.02 0.01 0.00 0.00 0.00 0.00 0.00 0.00 0.00 0.00 0.00 0.00 0.00 0.00 0.00 0.00 0.00 0.00 0.00 0.00 0.00 0.00 0.00 0.00
0.00 0.00 0.00 0.00 0.00 0.00 0.00 0.00 0.00 0.00 0.00 0.00 0.00 0.00 0.00 0.00 0.00 0.00 0.00 0.00 0.00 0.00 0.00 0.00 0.00 0.00 0.00 0.00 0.00 0.00 0.00 0.00 0.00 0.00 0.00 0.00 0.00 0.00 0.00 0.00 0.00 0.00 0.00
0.00 0.00 0.00 0.00 0.00 0.00 0.00 0.00 0.00 0.00 0.00 0.00 0.00 0.00 0.00 0.00 0.00 0.00 0.00 0.00 0.00 0.00 0.00 0.00 0.00 0.00 0.00 0.00 0.00 0.00 0.00 0.00 0.00 0.00 0.00 0.00 0.00 0.00 0.00 0.00 0.00 0.00 0.00
0.00 0.00 0.00 0.00 0.00 0.00 0.00 0.00 0.00 0.00 0.00 0.00 0.00 0.00 0.00 0.00 0.00 0.00 0.00 0.00 0.00 0.00 0.00 0.00 0.00 0.00 0.00 0.00 0.00 0.00 0.00 0.00 0.00 0.00 0.00 0.00 0.00 0.00 0.00 0.00 0.00 0.00 0.00
0.00 0.00 0.00 0.00 0.00 0.00 0.00 0.00 0.00 0.00 0.00 0.00 0.00 0.00 0.00 0.00 0.00 0.00 0.00 0.00 0.00 0.00 0.00 0.00 0.00 0.00 0.00 0.00 0.00 0.00 0.00 0.00 0.00 0.00 0.00 0.00 0.00 0.00 0.00 0.00 0.00 0.00 0.00
0.00 0.00 0.00 0.00 0.00 0.00 0.00 0.00 0.00 0.00 0.00 0.00 0.00 0.00 0.00 0.00 0.00 0.00 0.00 0.00 0.00 0.00 0.00 0.00 0.00 0.00 0.00 0.00 0.00 0.00 0.00 0.00 0.00 0.00 0.00 0.00 0.00 0.00 0.00 0.00 0.00 0.00 0.00
0.00 0.00 0.00 0.00 0.00 0.00 0.00 0.00 0.00 0.00 0.00 0.00 0.00 0.00 0.00 0.00 0.00 0.00 0.00 0.00 0.00 0.00 0.00 0.00 0.00 0.00 0.00 0.00 0.00 0.00 0.00 0.00 0.00 0.00 0.00 0.00 0.00 0.00 0.00 0.00 0.00 0.00 0.00
0.00 0.00 0.00 0.00 0.00 0.00 0.00 0.00 0.00 0.00 0.00 0.00 0.00 0.00 0.00 0.00 0.00 0.00 0.00 0.00 0.00 0.00 0.00 0.00 0.00 0.00 0.00 0.00 0.00 0.00 0.00 0.00 0.00 0.00 0.00 0.00 0.00 0.00 0.00 0.00 0.00 0.00 0.00
0.00 0.00 0.00 0.00 0.00 0.00 0.00 0.00 0.00 0.00 0.00 0.00 0.00 0.00 0.00 0.00 0.00 0.00 0.00 0.00 0.00 0.00 0.00 0.00 0.00 0.00 0.00 0.00 0.00 0.00 0.00 0.00 0.00 0.00 0.00 0.00 0.00 0.00 0.00 0.00 0.00 0.00 0.00
0.00 0.00 0.00 0.00 0.00 0.00 0.00 0.00 0.00 0.00 0.00 0.00 0.00 0.00 0.00 0.00 0.00 0.00 0.00 0.00 0.00 0.00 0.00 0.00 0.00 0.00 0.00 0.00 0.00 0.00 0.00 0.00 0.00 0.00 0.00 0.00 0.00 0.00 0.00 0.00 0.00 0.00 0.00
0.00 0.00 0.00 0.00 0.00 0.00 0.00 0.00 0.00 0.00 0.00 0.00 0.00 0.00 0.00 0.00 0.00 0.00 0.00 0.00 0.00 0.00 0.00 0.00 0.00 0.00 0.00 0.00 0.00 0.00 0.00 0.00 0.00 0.00 0.00 0.00 0.00 0.00 0.00 0.00 0.00 0.00 0.00
0.00 0.00 0.00 0.00 0.00 0.00 0.00 0.00 0.00 0.00 0.00 0.00 0.00 0.00 0.00 0.00 0.00 0.00 0.00 0.00 0.00 0.00 0.00 0.00 0.00 0.00 0.00 0.00 0.00 0.00 0.00 0.00 0.00 0.00 0.00 0.00 0.00 0.00 0.00 0.00 0.00 0.00 0.00
0.00 0.00 0.00 0.00 0.00 0.00 0.00 0.00 0.00 0.00 0.00 0.00 0.00 0.00 0.00 0.00 0.00 0.00 0.00 0.00 0.00 0.00 0.00 0.00 0.00 0.00 0.00 0.00 0.00 0.00 0.00 0.00 0.00 0.00 0.00 0.00 0.00 0.00 0.00 0.00 0.00 0.00 0.00
0.00 0.00 0.00 0.00 0.00 0.00 0.00 0.00 0.00 0.00 0.00 0.00 0.00 0.00 0.00 0.00 0.00 0.00 0.00 0.00 0.00 0.00 0.00 0.00 0.00 0.00 0.00 0.00 0.00 0.00 0.00 0.00 0.00 0.00 0.00 0.00 0.00 0.00 0.00 0.00 0.00 0.00 0.00
0.00 0.00 0.00 0.00 0.00 0.00 0.00 0.00 0.00 0.00 0.00 0.00 0.00 0.00 0.00 0.00 0.00 0.00 0.00 0.00 0.00 0.00 0.00 0.00 0.00 0.00 0.00 0.00 0.00 0.00 0.00 0.00 0.00 0.00 0.00 0.00 0.00 0.00 0.00 0.00 0.00 0.00 0.00
0.00 0.00 0.00 0.00 0.00 0.00 0.00 0.00 0.00 0.00 0.00 0.00 0.00 0.00 0.00 0.00 0.00 0.00 0.00 0.00 0.00 0.00 0.00 0.00 0.00 0.00 0.00 0.00 0.00 0.00 0.00 0.00 0.00 0.00 0.00 0.00 0.00 0.00 0.00 0.00 0.00 0.00 0.00
0.00 0.00 0.00 0.00 0.00 0.00 0.00 0.00 0.00 0.00 0.00 0.00 0.00 0.00 0.00 0.00 0.00 0.00 0.00 0.00 0.00 0.00 0.00 0.00 0.00 0.00 0.00 0.00 0.00 0.00 0.00 0.00 0.00 0.00 0.00 0.00 0.00 0.00 0.01 0.00 0.00 0.00 0.00
0.00 0.00 0.00 0.00 0.00 0.00 0.00 0.00 0.00 0.00 0.00 0.00 0.00 0.00 0.00 0.00 0.00 0.00 0.00 0.00 0.00 0.00 0.00 0.00 0.00 0.00 0.00 0.00 0.00 0.00 0.00 0.00 0.00 0.00 0.00 0.00 0.00 0.00 0.00 0.00 0.00 0.00 0.01
0.00 0.00 0.00 0.00 0.00 0.00 0.00 0.00 0.00 0.00 0.00 0.00 0.00 0.00 0.00 0.00 0.00 0.00 0.00 0.00 0.00 0.00 0.00 0.00 0.00 0.00 0.00 0.00 0.00 0.00 0.00 0.00 0.00 0.00 0.00 0.00 0.00 0.00 0.00 0.00 0.00 0.00 0.00
0.00 0.00 0.00 0.00 0.00 0.00 0.00 0.00 0.00 0.00 0.00 0.00 0.00 0.00 0.00 0.00 0.00 0.00 0.00 0.00 0.00 0.00 0.00 0.00 0.00 0.00 0.00 0.00 0.00 0.00 0.00 0.00 0.00 0.00 0.00 0.00 0.00 0.00 0.00 0.00 0.00 0.00 0.00
0.00 0.00 0.00 0.00 0.00 0.00 0.00 0.00 0.00 0.00 0.00 0.00 0.00 0.00 0.00 0.00 0.00 0.00 0.00 0.00 0.00 0.00 0.00 0.00 0.00 0.00 0.00 0.00 0.00 0.00 0.00 0.00 0.00 0.00 0.00 0.00 0.00 0.00 0.00 0.00 0.00 0.00 0.00
0.00 0.00 0.00 0.00 0.00 0.00 0.00 0.00 0.00 0.00 0.00 0.00 0.00 0.00 0.00 0.00 0.00 0.00 0.00 0.00 0.00 0.00 0.00 0.00 0.00 0.00 0.00 0.00 0.00 0.00 0.00 0.00 0.00 0.00 0.00 0.00 0.00 0.00 0.00 0.00 0.00 0.00 0.00
0.00 0.00 0.00 0.00 0.00 0.00 0.00 0.00 0.00 0.00 0.00 0.00 0.00 0.00 0.00 0.00 0.00 0.00 0.00 0.00 0.00 0.00 0.00 0.00 0.00 0.00 0.00 0.00 0.00 0.00 0.00 0.00 0.00 0.00 0.00 0.00 0.00 0.00 0.00 0.00 0.00 0.00 0.00
0.00 0.00 0.00 0.00 0.00 0.00 0.00 0.00 0.00 0.00 0.00 0.00 0.00 0.00 0.00 0.00 0.00 0.00 0.00 0.00 0.00 0.00 0.00 0.00 0.00 0.00 0.00 0.00 0.00 0.00 0.00 0.00 0.00 0.00 0.00 0.00 0.00 0.00 0.00 0.00 0.00 0.00 0.00
0.00 0.00 0.00 0.00 0.00 0.00 0.00 0.00 0.00 0.00 0.00 0.00 0.00 0.00 0.00 0.00 0.00 0.00 0.00 0.00 0.00 0.00 0.00 0.00 0.00 0.00 0.00 0.00 0.00 0.00 0.00 0.00 0.00 0.00 0.00 0.00 0.00 0.00 0.00 0.00 0.00 0.00 0.00
0.00 0.00 0.00 0.00 0.00 0.00 0.00 0.00 0.00 0.00 0.00 0.00 0.00 0.00 0.00 0.00 0.00 0.00 0.00 0.00 0.00 0.00 0.00 0.00 0.00 0.00 0.00 0.00 0.00 0.00 0.00 0.00 0.00 0.00 0.00 0.00 0.00 0.00 0.00 0.00 0.00 0.00 0.00
MSLP
1013.94 1014.16 1014.31 1014.47 1014.56 1014.68 1014.81 1014.89 1014.87 1014.82 1014.73 1014.63 1014.55 1014.64 1014.71 1014.96 1015.28 1015.73 1016.15 1016.62 1017.53 1018.10 1018.96 1019.58 1020.52 1021.19 1021.92 1022.39 1022.46 1022.61 1022.91 1023.17 1023.82 1024.90 1025.18 1025.56 1025.51 1025.53 1025.84 1025.88 1026.01 1026.32 1026.54
1014.08 1014.32 1014.52 1014.69 1014.79 1014.83 1014.96 1015.02 1014.94 1014.90 1014.66 1014.46 1014.47 1014.44 1014.61 1014.93 1015.27 1015.76 1016.25 1016.85 1017.57 1018.26 1019.06 1019.78 1020.81 1021.30 1022.14 1022.44 1022.47 1022.68 1023.15 1023.55 1023.60 1024.76 1025.46 1025.78 1025.92 1026.13 1026.18 1026.36 1026.38 1026.72 1026.80
1014.20 1014.39 1014.66 1014.87 1015.00 1015.07 1015.07 1015.17 1014.91 1014.86 1014.68 1014.60 1014.33 1014.28 1014.59 1015.10 1015.64 1016.08 1016.44 1017.11 1017.81 1018.54 1019.15 1019.77 1020.65 1021.43 1022.24 1022.53 1022.78 1022.90 1023.05 1023.57 1023.91 1024.52 1025.42 1025.88 1026.13 1026.31 1026.58 1026.85 1026.84 1026.94 1026.91
1014.30 1014.63 1014.86 1015.17 1015.20 1015.34 1015.42 1015.45 1015.26 1015.19 1015.08 1014.80 1014.75 1014.88 1015.17 1015.65 1016.11 1016.58 1017.09 1017.70 1018.26 1018.72 1019.64 1020.47 1020.95 1021.48 1022.03 1022.35 1022.65 1022.99 1023.36 1023.87 1024.30 1024.64 1025.33 1025.85 1026.20 1026.45 1026.47 1026.68 1027.09 1027.22 1027.48
1014.43 1014.88 1015.20 1015.47 1015.50 1015.54 1015.69 1015.75 1015.74 1015.64 1015.53 1015.39 1015.42 1015.68 1015.98 1016.27 1016.68 1017.06 1017.61 1018.08 1018.78 1019.63 1020.30 1020.87 1021.22 1021.71 1022.03 1022.38 1022.80 1023.27 1023.63 1024.17 1024.44 1024.96 1025.40 1025.81 1026.19 1026.29 1026.31 1026.84 1027.04 1027.34 1027.61
1014.56 1015.07 1015.47 1015.69 1015.85 1015.90 1016.05 1016.07 1016.20 1016.31 1016.18 1015.99 1016.03 1016.23 1016.54 1017.04 1017.36 1017.76 1018.18 1018.93 1019.64 1020.10 1020.80 1021.24 1021.72 1022.14 1022.44 1022.74 1022.95 1023.46 1023.76 1024.10 1024.56 1025.01 1025.56 1025.79 1026.43 1026.52 1026.84 1027.00 1027.05 1027.06 1027.22
1014.66 1015.16 1015.67 1015.91 1016.24 1016.34 1016.43 1016.66 1016.82 1016.96 1016.92 1016.85 1016.93 1017.02 1017.34 1017.74 1018.04 1018.40 1018.95 1019.56 1020.18 1020.94 1021.53 1021.96 1022.37 1022.79 1023.06 1023.15 1023.42 1023.87 1024.14 1024.53 1024.81 1025.02 1025.54 1026.03 1026.56 1027.00 1027.22 1027.28 1027.24 1027.40 1027.51
1014.72 1015.21 1015.84 1016.17 1016.56 1016.80 1016.90 1017.28 1017.57 1017.64 1017.74 1017.79 1017.91 1018.13 1018.30 1018.69 1018.96 1019.36 1019.88 1020.56 1021.23 1021.76 1022.14 1022.51 1022.78 1023.47 1023.90 1024.26 1024.68 1024.88 1025.22 1025.43 1025.59 1025.74 1026.02 1026.65 1027.04 1027.38 1027.49 1027.58 1027.62 1027.81 1028.03
1014.65 1015.19 1015.90 1016.37 1016.82 1017.24 1017.61 1017.94 1018.27 1018.32 1018.61 1018.73 1018.90 1019.08 1019.23 1019.80 1020.05 1020.40 1020.79 1021.44 1022.07 1022.85 1023.25 1023.57 1023.75 1024.19 1024.70 1024.90 1025.09 1025.46 1025.63 1025.96 1026.23 1026.46 1026.79 1027.12 1027.36 1027.50 1027.69 1027.74 1027.72 1027.47 1027.45
1014.52 1015.19 1015.94 1016.63 1017.16 1017.74 1018.14 1018.62 1019.15 1019.17 1019.37 1019.55 1019.85 1020.00 1020.18 1020.46 1021.00 1021.36 1021.73 1022.36 1023.00 1023.58 1023.97 1024.18 1024.49 1024.70 1025.00 1025.34 1025.50 1025.67 1025.96 1026.47 1026.72 1027.00 1027.09 1027.27 1027.24 1027.41 1027.68 1027.71 1027.80 1027.56 1027.56
1014.35 1015.26 1016.11 1016.91 1017.59 1018.04 1018.62 1019.09 1019.52 1019.87 1020.20 1020.45 1020.68 1021.10 1021.24 1021.35 1021.82 1022.12 1022.34 1022.79 1023.41 1024.06 1024.48 1024.81 1025.03 1025.30 1025.54 1025.94 1026.30 1026.45 1026.61 1027.00 1027.16 1027.21 1027.32 1027.48 1027.45 1027.53 1027.54 1027.72 1027.84 1027.73 1027.59
1014.27 1015.30 1016.27 1017.18 1017.99 1018.52 1018.88 1019.70 1020.09 1020.34 1020.69 1021.22 1021.49 1021.92 1022.25 1022.29 1022.48 1022.91 1023.34 1023.68 1024.13 1024.49 1025.17 1025.58 1025.77 1025.92 1025.91 1026.13 1026.41 1026.44 1026.80 1027.28 1027.39 1027.52 1027.52 1027.56 1027.53 1027.55 1027.61 1027.65 1027.69 1027.74 1027.70
1014.21 1015.35 1016.41 1017.41 1018.16 1018.90 1019.28 1019.95 1020.46 1020.79 1021.05 1021.65 1022.00 1022.39 1022.81 1023.06 1023.16 1023.39 1023.80 1024.30 1024.84 1025.27 1025.61 1025.96 1026.29 1026.53 1026.73 1026.69 1027.07 1027.31 1027.54 1027.59 1027.69 1027.75 1027.78 1027.83 1027.86 1027.89 1027.79 1027.77 1027.73 1027.75 1027.63
1014.08 1015.34 1016.46 1017.43 1018.42 1019.17 1019.68 1020.05 1020.38 1020.80 1021.28 1021.80 1022.30 1022.79 1023.24 1023.53 1023.76 1024.03 1024.43 1024.84 1025.15 1025.56 1026.20 1026.56 1026.84 1027.09 1027.34 1027.67 1027.82 1027.92 1027.92 1027.91 1028.03 1028.07 1028.11 1028.14 1028.01 1027.95 1027.88 1027.95 1027.82 1027.75 1027.60
1013.87 1015.26 1016.45 1017.40 1018.27 1019.06 1019.62 1019.98 1020.41 1020.95 1021.09 1021.66 1022.45 1022.86 1023.17 1023.70 1024.16 1024.40 1024.70 1025.24 1025.70 1026.18 1026.73 1027.14 1027.44 1027.65 1027.79 1028.00 1028.21 1028.34 1028.40 1028.36 1028.33 1028.45 1028.45 1028.40 1028.35 1028.28 1028.16 1028.13 1028.14 1028.02 1027.75
1013.75 1015.05 1016.15 1017.22 1018.29 1018.86 1019.59 1020.39 1020.91 1021.20 1021.68 1022.13 1022.57 1022.81 1023.43 1023.71 1024.10 1024.54 1025.03 1025.46 1025.82 1026.30 1026.77 1027.15 1027.46 1027.69 1027.92 1028.16 1028.27 1028.40 1028.57 1028.65 1028.80 1028.81 1028.78 1028.75 1028.81 1028.74 1028.50 1028.49 1028.46 1028.16 1027.93
1013.28 1014.59 1015.78 1016.92 1018.02 1018.64 1019.45 1020.05 1020.68 1021.73 1021.99 1022.23 1022.62 1023.04 1023.31 1023.56 1024.08 1024.59 1025.10 1025.53 1025.99 1026.45 1026.81 1027.24 1027.52 1027.80 1028.09 1028.34 1028.50 1028.67 1028.84 1029.06 1029.16 1029.19 1029.14 1029.02 1028.97 1028.88 1028.88 1028.61 1028.45 1028.17 1027.84
1012.98 1014.18 1015.29 1016.52 1017.61 1018.40 1019.12 1019.91 1020.48 1021.09 1021.63 1022.33 1022.80 1023.01 1023.31 1023.64 1024.17 1024.69 1025.12 1025.60 1026.20 1026.65 1027.05 1027.38 1027.61 1027.92 1028.19 1028.36 1028.63 1028.81 1029.02 1029.18 1029.26 1029.46 1029.48 1029.47 1029.43 1029.28 1029.17 1028.91 1028.60 1028.37 1028.04
1012.59 1013.86 1015.03 1016.22 1017.32 1018.06 1018.88 1019.87 1020.45 1021.02 1021.54 1022.13 1022.73 1023.18 1023.32 1023.74 1024.28 1024.72 1025.14 1025.52 1026.06 1026.57 1027.10 1027.42 1027.69 1028.00 1028.21 1028.48 1028.72 1028.93 1029.09 1029.20 1029.33 1029.43 1029.53 1029.57 1029.54 1029.50 1029.33 1029.08 1028.88 1028.67 1028.41
1012.33 1013.38 1014.68 1015.85 1016.96 1017.89 1018.68 1019.51 1020.23 1020.84 1021.42 1021.95 1022.35 1022.75 1023.18 1023.78 1024.21 1024.59 1025.17 1025.60 1026.05 1026.46 1026.95 1027.32 1027.67 1027.98 1028.30 1028.57 1028.82 1029.04 1029.19 1029.31 1029.46 1029.56 1029.63 1029.67 1029.58 1029.47 1029.32 1029.24 1029.07 1028.83 1028.49
1011.87 1013.22 1014.23 1015.50 1016.42 1017.32 1018.17 1018.95 1019.73 1020.48 1021.06 1021.57 1021.96 1022.46 1022.77 1023.21 1023.80 1024.34 1024.90 1025.50 1025.98 1026.46 1026.94 1027.25 1027.61 1027.97 1028.36 1028.60 1028.82 1029.02 1029.21 1029.40 1029.60 1029.68 1029.72 1029.77 1029.72 1029.65 1029.54 1029.38 1029.17 1028.89 1028.61
1011.50 1012.67 1013.90 1014.86 1015.90 1016.90 1017.73 1018.49 1019.28 1020.05 1020.67 1021.19 1021.75 1022.31 1022.75 1023.24 1023.68 1024.19 1024.76 1025.30 1025.74 1026.25 1026.68 1027.06 1027.52 1027.92 1028.19 1028.42 1028.66 1028.92 1029.21 1029.37 1029.52 1029.70 1029.74 1029.83 1029.80 1029.69 1029.59 1029.44 1029.17 1028.85 1028.49
1011.09 1012.17 1013.49 1014.57 1015.49 1016.44 1017.40 1018.15 1018.86 1019.57 1020.24 1020.82 1021.36 1021.88 1022.36 1022.92 1023.47 1024.03 1024.58 1025.16 1025.67 1026.26 1026.67 1027.10 1027.64 1028.08 1028.32 1028.59 1028.82 1029.11 1029.30 1029.27 1029.47 1029.59 1029.75 1029.75 1029.67 1029.67 1029.56 1029.35 1029.10 1028.77 1028.44
1010.55 1011.60 1012.86 1014.05 1015.05 1015.91 1016.76 1017.65 1018.39 1019.08 1019.77 1020.41 1021.04 1021.45 1021.89 1022.58 1023.23 1023.80 1024.44 1025.01 1025.53 1026.21 1026.73 1027.25 1027.72 1028.01 1028.33 1028.65 1028.92 1029.19 1029.29 1029.46 1029.59 1029.67 1029.74 1029.68 1029.62 1029.55 1029.41 1029.24 1029.05 1028.81 1028.46
1010.04 1011.18 1012.40 1013.45 1014.41 1015.38 1016.34 1017.17 1017.91 1018.64 1019.32 1019.90 1020.58 1021.13 1021.69 1022.41 1023.08 1023.71 1024.36 1025.00 1025.61 1026.28 1026.84 1027.24 1027.72 1028.07 1028.32 1028.60 1028.89 1029.13 1029.38 1029.59 1029.68 1029.80 1029.73 1029.71 1029.72 1029.59 1029.44 1029.25 1028.99 1028.70 1028.34
1009.50 1010.65 1011.86 1012.99 1013.95 1014.84 1015.70 1016.60 1017.39 1018.12 1018.79 1019.43 1020.06 1020.74 1021.39 1022.09 1022.81 1023.48 1024.16 1024.85 1025.60 1026.24 1026.75 1027.30 1027.76 1028.07 1028.33 1028.66 1028.94 1029.15 1029.33 1029.51 1029.66 1029.77 1029.71 1029.73 1029.70 1029.56 1029.33 1029.09 1028.83 1028.55 1028.23
Thickness
5611 5606 5602 5598 5595 5592 5589 5586 5583 5582 5580 5581 5586 5592 5595 5596 5595 5594 5590 5591 5586 5585 5582 5582 5577 5573 5569 5565 5566 5566 5565 5563 5559 5547 5545 5542 5542 5540 5537 5536 5535 5531 5527
5608 5602 5598 5595 5591 5589 5586 5583 5580 5576 5575 5573 5579 5588 5593 5593 5594 5592 5588 5584 5581 5579 5577 5577 5571 5569 5561 5560 5561 5560 5556 5553 5552 5543 5535 5533 5532 5530 5528 5524 5522 5518 5516
5606 5600 5595 5592 5588 5584 5583 5580 5579 5575 5574 5575 5583 5589 5591 5591 5590 5587 5586 5582 5579 5576 5575 5574 5569 5564 5557 5556 5555 5553 5551 5547 5544 5539 5530 5525 5522 5520 5517 5512 5510 5506 5503
5603 5597 5593 5589 5585 5581 5578 5577 5577 5575 5576 5579 5582 5584 5586 5585 5584 5582 5579 5574 5573 5573 5568 5563 5562 5559 5554 5553 5550 5547 5543 5538 5534 5530 5523 5517 5512 5509 5507 5503 5498 5492 5489
5601 5594 5589 5586 5583 5580 5575 5574 5573 5574 5576 5578 5580 5580 5579 5579 5578 5575 5573 5570 5568 5564 5561 5558 5556 5552 5549 5546 5543 5538 5535 5529 5526 5519 5514 5509 5503 5501 5499 5490 5486 5481 5476
5598 5592 5587 5585 5582 5580 5577 5573 5570 5569 5572 5575 5575 5576 5576 5574 5572 5571 5570 5566 5563 5561 5556 5553 5548 5543 5542 5539 5536 5530 5526 5521 5515 5510 5502 5498 5489 5487 5482 5477 5474 5472 5470
5595 5590 5585 5582 5579 5577 5576 5572 5568 5566 5568 5570 5571 5572 5571 5570 5569 5568 5565 5562 5559 5553 5547 5543 5539 5535 5532 5530 5525 5517 5513 5506 5502 5499 5492 5485 5477 5470 5464 5460 5458 5454 5450
5592 5588 5583 5580 5577 5575 5574 5569 5565 5564 5564 5564 5565 5565 5565 5563 5563 5560 5557 5552 5547 5543 5539 5534 5532 5525 5518 5513 5506 5502 5496 5492 5486 5481 5476 5466 5458 5452 5448 5444 5440 5434 5429
5589 5586 5581 5578 5575 5571 5568 5565 5562 5561 5559 5559 5558 5557 5557 5553 5552 5550 5547 5543 5538 5530 5526 5521 5519 5514 5506 5502 5497 5489 5484 5478 5471 5464 5456 5449 5442 5437 5431 5428 5424 5423 5420
5587 5584 5578 5574 5570 5566 5563 5560 5555 5556 5554 5553 5551 5550 5549 5547 5543 5540 5538 5533 5526 5520 5515 5510 5505 5499 5493 5487 5483 5478 5471 5461 5453 5445 5439 5433 5428 5423 5417 5412 5408 5407 5404
5585 5580 5575 5569 5565 5562 5558 5556 5554 5551 5549 5547 5545 5541 5540 5539 5534 5531 5529 5525 5519 5511 5505 5499 5492 5486 5481 5473 5465 5458 5452 5443 5437 5431 5425 5418 5413 5408 5404 5399 5393 5390 5388
5582 5577 5570 5564 5559 5557 5555 5549 5547 5546 5543 5539 5537 5533 5530 5529 5527 5522 5518 5513 5507 5501 5492 5484 5478 5472 5467 5460 5453 5447 5440 5432 5426 5420 5415 5409 5404 5399 5393 5387 5382 5378 5374
5579 5573 5566 5560 5556 5552 5550 5545 5542 5541 5540 5535 5532 5529 5524 5521 5518 5513 5508 5502 5495 5488 5482 5475 5469 5463 5456 5450 5443 5436 5429 5423 5417 5411 5405 5399 5393 5387 5383 5378 5373 5368 5364
5577 5570 5563 5557 5552 5547 5545 5544 5542 5539 5536 5532 5529 5524 5518 5514 5510 5506 5500 5494 5488 5483 5475 5469 5463 5456 5450 5442 5434 5427 5420 5414 5408 5402 5395 5389 5384 5379 5375 5369 5365 5360 5356
5576 5568 5561 5557 5552 5547 5544 5543 5541 5537 5537 5532 5525 5520 5516 5510 5505 5500 5496 5489 5483 5477 5471 5464 5458 5451 5444 5435 5426 5417 5410 5404 5399 5392 5386 5380 5375 5370 5365 5359 5353 5349 5347
5574 5567 5561 5555 5549 5547 5543 5538 5535 5533 5530 5525 5521 5518 5511 5507 5502 5496 5491 5486 5482 5476 5469 5463 5455 5447 5438 5428 5420 5412 5404 5397 5389 5383 5377 5371 5364 5358 5354 5348 5343 5339 5335
5575 5568 5561 5555 5550 5547 5542 5540 5535 5526 5523 5521 5517 5512 5509 5506 5500 5495 5490 5485 5479 5473 5467 5459 5452 5442 5431 5421 5412 5404 5396 5388 5381 5374 5368 5362 5356 5350 5343 5339 5334 5330 5326
5574 5568 5563 5556 5551 5547 5544 5539 5535 5530 5525 5518 5513 5511 5508 5503 5498 5494 5489 5484 5477 5469 5462 5455 5448 5438 5427 5417 5408 5400 5392 5384 5376 5368 5360 5353 5345 5339 5333 5328 5323 5317 5312
5574 5568 5563 5557 5551 5548 5543 5536 5532 5528 5524 5518 5513 5509 5506 5502 5498 5493 5488 5483 5476 5468 5460 5452 5444 5435 5425 5415 5406 5398 5390 5382 5373 5365 5355 5346 5338 5331 5325 5320 5313 5305 5297
5572 5568 5562 5557 5552 5547 5543 5537 5531 5527 5523 5519 5516 5512 5508 5503 5499 5495 5487 5481 5474 5467 5459 5451 5443 5434 5424 5413 5404 5395 5387 5379 5369 5360 5351 5341 5334 5326 5320 5311 5303 5295 5287
5574 5569 5565 5559 5556 5551 5545 5540 5534 5529 5525 5522 5519 5514 5512 5508 5502 5496 5489 5481 5473 5465 5457 5450 5442 5433 5422 5412 5402 5393 5384 5375 5365 5356 5347 5337 5329 5321 5313 5305 5297 5289 5281
5575 5571 5565 5563 5557 5551 5546 5541 5536 5531 5528 5525 5520 5515 5512 5507 5502 5496 5489 5481 5473 5465 5457 5449 5441 5432 5423 5413 5403 5393 5383 5374 5364 5354 5345 5335 5326 5318 5310 5302 5294 5287 5280
5576 5572 5567 5562 5558 5553 5546 5541 5538 5534 5530 5527 5522 5519 5515 5508 5503 5496 5489 5481 5473 5464 5456 5448 5439 5430 5421 5412 5402 5392 5382 5373 5363 5354 5344 5335 5327 5318 5309 5302 5295 5288 5282
5577 5575 5569 5563 5558 5554 5549 5543 5540 5536 5532 5528 5524 5521 5517 5511 5503 5496 5489 5481 5473 5464 5456 5447 5438 5429 5420 5411 5401 5391 5382 5372 5363 5354 5345 5336 5327 5319 5311 5304 5297 5291 5286
5579 5576 5570 5565 5561 5556 5550 5545 5541 5538 5534 5530 5526 5522 5517 5510 5503 5496 5488 5481 5473 5463 5455 5447 5437 5428 5419 5410 5401 5391 5382 5373 5363 5354 5345 5337 5328 5320 5313 5306 5300 5295 5290
5582 5577 5572 5567 5563 5558 5553 5547 5544 5540 5537 5533 5529 5524 5518 5512 5504 5497 5490 5482 5473 5464 5456 5446 5436 5427 5418 5409 5400 5391 5382 5373 5364 5355 5347 5338 5330 5322 5316 5310 5304 5299 5294